Location: Orange
(33.2833°S, 149.1000°E)
Time: 00:51:56
(UTC+11:00)

X-37B - Pass Details

Date: 10 December 2021
Orbit: 334 x 337 km, 45.0° (Epoch: 11 January)

Event Time Altitude Azimuth Distance (km) Brightness Sun altitude
Exits shadow 04:02:24 12° 45° (NE) 1,160 3.0 -18.4°
Drops below altitude 10° 04:03:38 10° 71° (ENE) 1,283 3.5 -18.2°
Sets 04:06:32 0° 103° (ESE) 2,131 5.3 -17.8°
